Showing default

KUIPER-00194, 68577

Orbit data source: Space-Track

KUIPER-00194, 68577 is a payload satellite owned by Kuiper Systems (US) in LEO that was launched on Sat, 04 Apr 2026 UTC via an ATLAS V 551 launch vehicle from the Air Force Eastern Test Range (AFETR). Payload-class satellites include a variety of spacecraft equipped with specific instruments for various scientific and technological missions. These include communications satellites like Starlink; space stations such as the ISS; scientific satellites like the Hubble; Earth observation satellites from companies like Planet Labs, Umbra, and HawkEye 360; GPS; miniature CubeSats for education and research; and military/defense satellites.

Loading next visibility...
Identifier
68577, 2026-072E
Orbit
LEO
Country
Flag of USUS
Related business
Manufacturer
Kuiper Systems
Mission
Operational spacecraft
Bus & Motor
KUIPER, Unknown motor
Mass
~490 kg wet, ~490 kg dry
Launch date (UTC)
2026-04-04 (1 month ago)
Launch vehicle
ATLAS V 551
Launch site
Air Force Eastern Test Range (AFETR)
Object type
Payload
Rocket body
Debris
Shape & HBR
Unknown shape, 3.4 m
Radar Cross Section
RCS unknown

Expand to show TLE details & history
Last TLE update: 5 hours ago

TLE from 5 hours ago
0 KUIPER-00194
1 68577U 26072E   26138.83335647 -.00014837  00000-0 -11382-2 0  9991
2 68577  51.8914 321.3067 0002198 301.2733  22.2806 15.00763488  5540
Epoch: 2026-05-18T20:00Z
TLE epoch observation values (Epoch: 2026-05-18T20:00:01.999Z)
Latitude
-28.05831°
Longitude
120.21381°
Altitude
571.392 km
Speed
7.576 km/s
True Right ascension
19h 46m 57s
True Declination
-27° 54' 43"
Sunlit
Object was in full shadow at epoch
Visualization orbit readout
Latitude
Unknown
Longitude
Unknown
Altitude
Unknown
Speed
Unknown
Apparent Right ascension
Unknown
Apparent Declination
Unknown
Sunlit
N/A
Visualization observer readout
Local Sidereal Time
09:56:36
Azimuth
Unknown
Elevation
Unknown
Doppler factor
Unknown
Orbital elements
Apogee altitude
566.523 km
Perigee altitude
563.471 km
Semi-major axis
6,943.134 km
Eccentricity
0.00022
Inclination
51.8914°
RAAN
321.3067°
Arg. of periapsis
301.2733°
True anomaly
22.29015°
Mean anomaly
22.2806°
Eccentric anomaly
22.28538°
Mean motion
3.75154 °/min
Orbital period
95.96 mins
BSTAR
-0.0011382
Loading maneuver chart data...
Computing Atmospheric mass density...
Loading historical data...
Loading historical data...
Loading historical data...
Loading historical data...
Loading historical data...
Loading historical data...
Loading historical data...

Documentation

Showing up to 5 results
|